Home > Weather > Haugesund > Past weeks

Flag for Norway Past Weather in Haugesund, Norway — Yesterday and Last 2 Weeks

Now
68 °F

Sunny.


Feels Like: 68 °F
Forecast: 57 / 68 °F
Wind: 3 mph from North

Location: Karmoy

Current Time: Jul 23, 2016 at 11:28:24 AM

Latest Report: Jul 23, 2016 at 10:50 AM


Visibility: 10 mi

Pressure: 30.12 "Hg

Humidity: 69%

Dew Point: 57 °F

Location of HaugesundLocation

Past Weather in Haugesund — Graph

°F

Haugesund Temperature Yesterday

Maximum temperature yesterday: 64 °F (at 3:20 PM)
Minimum temperature yesterday: 59 °F (at 8:50 AM)
Average temperature yesterday: 61 °F

High & Low Weather Summary for the Past Weeks

 TemperatureHumidityPressure
High75 °F (Jul 20, 1:50 PM)100% (Jul 10, 4:20 PM)30.12 "Hg (Jul 10, 4:20 PM)
Low52 °F (Jul 17, 12:20 AM)57% (Jul 21, 7:20 AM)29.42 "Hg (Jul 11, 7:20 AM)
Average59 °F85%29.86 "Hg
* Reported Jul 8 9:20 AM — Jul 23 9:50 AM, Haugesund, Weather by CustomWeather, © 2016

Note: Actual official high and low records may vary slightly from our data, if they occured in-between our weather recording intervals... More about our weather records

Advertising

Haugesund Weather History for the Previous 24 Hours

Scroll right to see more
 ConditionsComfort  
Time TempWeatherWind HumidityBarometerVisibility
9:50 AM
Sat, Jul 23
66 °FSunny.2 mph68%30.12 "Hg10 mi
9:20 AM64 °FPassing clouds.5 mph83%30.12 "HgN/A
8:50 AM64 °FSunny.8 mph83%30.12 "Hg10 mi
8:20 AM63 °FSunny.7 mph83%30.12 "Hg10 mi
7:50 AM61 °FSunny.6 mph88%30.12 "Hg10 mi
7:20 AM59 °FSunny.3 mph94%30.12 "Hg10 mi
6:50 AM57 °FScattered clouds.3 mph100%30.12 "HgN/A
6:20 AM57 °FOvercast.3 mph94%30.12 "HgN/A
5:50 AM55 °FOvercast.3 mph94%30.12 "Hg3 mi
5:20 AM54 °FFog.3 mph94%30.12 "Hg3 mi
4:50 AM54 °FCool.No wind94%30.12 "Hg3 mi
4:20 AM54 °FCool.3 mph94%30.12 "Hg6 mi
3:50 AM54 °FFog.3 mph100%30.12 "Hg2 mi
3:20 AM55 °FCool.3 mph94%30.12 "Hg6 mi
2:50 AM55 °FFog.6 mph94%30.12 "HgN/A
2:20 AM55 °FFog.6 mph94%30.12 "Hg3 mi
1:50 AM55 °FPassing clouds.3 mph100%30.12 "HgN/A
1:20 AM55 °FCool.3 mph94%30.12 "Hg4 mi
12:50 AM55 °FPassing clouds.2 mph94%30.12 "HgN/A
12:20 AM57 °FPassing clouds.2 mph94%30.12 "HgN/A
11:50 PM
Fri, Jul 22
59 °FOvercast.2 mph94%30.12 "HgN/A
11:20 PM59 °FPartly sunny.3 mph94%30.12 "HgN/A
10:50 PM61 °FPassing clouds.3 mph88%30.12 "HgN/A
10:20 PM61 °FPartly sunny.3 mph88%30.12 "HgN/A
9:50 PM61 °FPartly sunny.6 mph88%30.12 "HgN/A
9:20 PM61 °FPartly sunny.6 mph88%30.12 "HgN/A
8:50 PM61 °FPartly sunny.7 mph88%30.12 "HgN/A
8:20 PM63 °FPartly sunny.8 mph83%30.12 "HgN/A
7:50 PM63 °FPartly sunny.9 mph77%30.09 "HgN/A
7:20 PM63 °FPartly sunny.8 mph73%30.09 "HgN/A
6:50 PM63 °FPartly sunny.9 mph73%30.09 "HgN/A
6:20 PM63 °FPartly sunny.8 mph73%30.09 "HgN/A
5:50 PM64 °FPartly sunny.8 mph73%30.09 "HgN/A
5:20 PM63 °FPartly sunny.7 mph77%30.09 "HgN/A
4:50 PM63 °FPartly sunny.8 mph73%30.09 "HgN/A
4:20 PM64 °FBroken clouds.9 mph68%30.09 "HgN/A
3:50 PM64 °FScattered clouds.9 mph68%30.09 "HgN/A
3:20 PM64 °FScattered clouds.9 mph68%30.09 "HgN/A
2:50 PM63 °FBroken clouds.9 mph73%30.09 "HgN/A
2:20 PM63 °FBroken clouds.12 mph73%30.09 "HgN/A
1:50 PM63 °FBroken clouds.9 mph77%30.07 "HgN/A
1:20 PM63 °FBroken clouds.10 mph77%30.07 "HgN/A
12:50 PM63 °FPartly sunny.9 mph77%30.07 "HgN/A
12:20 PM61 °FPartly sunny.10 mph83%30.07 "HgN/A
11:50 AM61 °FPartly sunny.8 mph83%30.07 "HgN/A
11:20 AM61 °FPartly sunny.7 mph88%30.07 "HgN/A
Weather by CustomWeather, © 2016

See weather overviewHow to use our weather pages